Weather History for Jefferson, NC

Change the Weather History Date:

Monday, October 7, 2013

  Actual Average Record
Temperature  
Mean Temperature 56 °F -  
Max Temperature 63 °F 64 °F 78 °F (1990)
Min Temperature 48 °F 40 °F 25 °F (1980)
Degree Days  
Heating Degree Days 9    
Growing Degree Days 6 (Base 50)    
Moisture  
Dew Point 50 °F    
Average Humidity 79    
Maximum Humidity 96    
Minimum Humidity 58    
Precipitation  
Precipitation 0.97 in - - ()
Sea Level Pressure  
Sea Level Pressure 29.98 in    
Wind  
Wind Speed 4 mph (NW)    
Max Wind Speed 16 mph    
Max Gust Speed 23 mph    
Visibility 8 miles    
Events Rain    
Averages and records for this station are not official NWS values.
T = Trace of Precipitation, MM = Missing Value Source: NWS Daily Summary

Daily Weather History Graph

Daily Weather History Graph

Search for Another Location

Airport:

Trip Planner

Search our weather history database for the weather conditions in past years. The results will help you decide how hot, cold, wet, or windy it might be!

Date:

Astronomy

Oct. 07, 2013 Rise Set
Actual Time 7:26 AM EDT 7:00 PM EDT
Civil Twilight 7:00 AM EDT 7:25 PM EDT
Nautical Twilight 6:30 AM EDT 7:55 PM EDT
Astronomical Twilight 6:00 AM EDT 8:25 PM EDT
Moon 10:09 AM EDT (10/7) 8:49 PM EDT (10/7)
Length of Visible Light 12h 25m
Length of Day
11h 34m
Waxing Crescent, 8% of the Moon is Illuminated
Oct 7
Waxing Crescent
Oct 11
First Quarter
Oct 18
Full
Oct 26
Last Quarter
Nov 3
New

Hourly Weather History & Observations

Time (EDT) Temp. Dew Point Humidity Pressure Visibility Wind Dir Wind Speed Gust Speed Precip Events Conditions
12:15 AM 63.9 °F 57.2 °F 79% 29.99 in 10.0 mi Calm Calm - N/A   Overcast
12:35 AM 63.9 °F 57.0 °F 78% 29.99 in 10.0 mi Calm Calm - N/A Rain Light Rain
12:55 AM 63.0 °F 57.2 °F 81% 29.98 in 10.0 mi SE 3.5 mph - N/A   Overcast
1:15 AM 63.0 °F 58.1 °F 84% 29.97 in 10.0 mi Calm Calm - N/A   Overcast
1:35 AM 62.1 °F 59.5 °F 91% 29.96 in 7.0 mi Calm Calm - 0.01 in Rain Rain
1:55 AM 61.7 °F 59.9 °F 94% 29.95 in 5.0 mi Calm Calm - 0.01 in Rain Rain
2:35 AM 61.7 °F 60.1 °F 94% 29.94 in 5.0 mi Calm Calm - N/A   Overcast
2:55 AM 63.5 °F 61.2 °F 92% 29.93 in 10.0 mi Calm Calm - N/A   Overcast
3:15 AM 62.6 °F 60.3 °F 92% 29.93 in 3.0 mi ESE 3.5 mph - 0.05 in Rain Rain
3:35 AM 61.5 °F 59.9 °F 94% 29.94 in 2.0 mi SSE 4.6 mph - 0.15 in Rain Heavy Rain
3:55 AM 60.1 °F 58.5 °F 94% 29.90 in 1.8 mi SE 3.5 mph - 0.27 in Rain Rain
4:15 AM 59.2 °F 57.7 °F 95% 29.90 in 0.8 mi Calm Calm - 0.09 in Rain Rain
4:35 AM 58.6 °F 57.2 °F 95% 29.92 in 1.5 mi Calm Calm - 0.15 in Rain Rain
4:55 AM 58.3 °F 56.8 °F 95% 29.91 in 5.0 mi Calm Calm - 0.16 in Rain Rain
5:15 AM 58.3 °F 57.2 °F 96% 29.91 in 1.8 mi Calm Calm - 0.04 in Rain Rain
5:35 AM 58.5 °F 57.2 °F 96% 29.90 in 1.0 mi Calm Calm - 0.09 in Rain Heavy Rain
5:55 AM 58.8 °F 57.4 °F 95% 29.90 in 2.0 mi Calm Calm - 0.19 in Rain Heavy Rain
6:15 AM 58.8 °F 57.4 °F 95% 29.90 in 1.2 mi Calm Calm - 0.09 in Rain Heavy Rain
6:35 AM 59.2 °F 57.9 °F 96% 29.91 in 4.0 mi West 9.2 mph - 0.21 in Rain Heavy Rain
6:55 AM 60.1 °F 58.8 °F 96% 29.91 in 7.0 mi West 3.5 mph - 0.28 in Rain Rain
7:15 AM 60.1 °F 58.8 °F 96% 29.91 in 7.0 mi West 5.8 mph - 0.05 in Rain Rain
7:35 AM 60.1 °F 58.1 °F 93% 29.91 in 10.0 mi WNW 4.6 mph - 0.06 in Rain Light Rain
7:55 AM 59.0 °F 55.6 °F 88% 29.92 in 10.0 mi West 13.8 mph 23.0 mph 0.06 in Rain Light Rain
8:15 AM 58.1 °F 55.0 °F 90% 29.92 in 10.0 mi West 13.8 mph - N/A   Overcast
8:35 AM 57.2 °F 53.6 °F 88% 29.91 in 10.0 mi WNW 10.4 mph - N/A   Overcast
8:55 AM 56.7 °F 52.9 °F 87% 29.93 in 10.0 mi West 16.1 mph 23.0 mph N/A   Mostly Cloudy
9:15 AM 55.4 °F 52.5 °F 90% 29.94 in 10.0 mi WNW 16.1 mph 21.9 mph N/A   Mostly Cloudy
9:35 AM 55.0 °F 52.0 °F 89% 29.95 in 10.0 mi West 15.0 mph 23.0 mph N/A   Overcast
9:55 AM 55.4 °F 51.8 °F 88% 29.96 in 10.0 mi NNW 4.6 mph 16.1 mph N/A   Mostly Cloudy
10:15 AM 55.0 °F 51.6 °F 88% 29.97 in 10.0 mi Calm Calm - N/A   Overcast
10:35 AM 56.3 °F 51.1 °F 83% 29.97 in 10.0 mi WNW 4.6 mph - N/A   Mostly Cloudy
10:55 AM 56.7 °F 51.1 °F 82% 29.97 in 10.0 mi West 8.1 mph - N/A   Mostly Cloudy
11:15 AM 56.5 °F 51.8 °F 84% 29.97 in 10.0 mi NNW 3.5 mph - N/A   Overcast
11:35 AM 55.6 °F 50.5 °F 83% 29.99 in 10.0 mi West 5.8 mph - N/A   Overcast
11:55 AM 54.9 °F 50.4 °F 85% 29.99 in 10.0 mi NW 4.6 mph - N/A   Overcast
12:15 PM 54.5 °F 50.4 °F 86% 30.00 in 10.0 mi NW 8.1 mph 17.3 mph N/A   Overcast
12:35 PM 55.4 °F 50.7 °F 84% 30.00 in 10.0 mi NW 5.8 mph - N/A   Overcast
12:55 PM 54.7 °F 50.4 °F 85% 29.99 in 10.0 mi NW 10.4 mph 17.3 mph N/A   Overcast
1:15 PM 56.5 °F 48.6 °F 75% 29.98 in 10.0 mi NW 6.9 mph 17.3 mph N/A   Mostly Cloudy
1:35 PM 56.7 °F 48.2 °F 73% 29.98 in 10.0 mi NW 6.9 mph - N/A   Mostly Cloudy
1:55 PM 57.7 °F 47.5 °F 69% 29.98 in 10.0 mi NNW 6.9 mph - N/A   Scattered Clouds
2:15 PM 57.6 °F 46.4 °F 66% 29.98 in 10.0 mi NNW 5.8 mph - N/A   Scattered Clouds
2:35 PM 58.1 °F 45.9 °F 64% 29.98 in 10.0 mi North 4.6 mph - N/A   Scattered Clouds
2:55 PM 58.5 °F 44.1 °F 59% 29.98 in 10.0 mi NNW 4.6 mph - N/A   Scattered Clouds
3:15 PM 59.0 °F 44.1 °F 58% 29.99 in 10.0 mi NNW 3.5 mph - N/A   Clear
3:35 PM 59.0 °F 44.1 °F 58% 29.99 in 10.0 mi WNW 6.9 mph - N/A   Clear
3:55 PM 58.6 °F 44.2 °F 59% 29.99 in 10.0 mi NW 5.8 mph - N/A   Clear
4:15 PM 57.7 °F 44.1 °F 60% 29.99 in 10.0 mi NNW 11.5 mph - N/A   Clear
4:35 PM 57.7 °F 44.1 °F 60% 30.00 in 10.0 mi NW 10.4 mph - N/A   Clear
4:55 PM 57.6 °F 43.9 °F 60% 30.00 in 10.0 mi NW 6.9 mph 18.4 mph N/A   Clear
5:15 PM 57.2 °F 44.6 °F 63% 30.00 in 10.0 mi NW 3.5 mph - N/A   Clear
5:35 PM 57.2 °F 45.5 °F 65% 30.00 in 10.0 mi NNW 8.1 mph - N/A   Clear
5:55 PM 56.8 °F 45.0 °F 64% 30.00 in 10.0 mi NW 6.9 mph - N/A   Clear
6:15 PM 57.7 °F 45.3 °F 63% 30.00 in 10.0 mi WNW 8.1 mph - N/A   Clear
6:35 PM 57.2 °F 45.3 °F 65% 30.01 in 10.0 mi NW 11.5 mph - N/A   Clear
6:55 PM 56.3 °F 45.5 °F 67% 30.02 in 10.0 mi NW 6.9 mph - N/A   Clear
7:15 PM 55.9 °F 45.7 °F 68% 30.03 in 10.0 mi NW 3.5 mph - N/A   Clear
7:35 PM 55.4 °F 45.1 °F 68% 30.03 in 10.0 mi NW 9.2 mph - N/A   Clear
7:55 PM 54.7 °F 45.0 °F 70% 30.03 in 10.0 mi NW 9.2 mph - N/A   Clear
8:15 PM 54.3 °F 44.2 °F 69% 30.05 in 10.0 mi NW 5.8 mph - N/A   Clear
8:35 PM 53.4 °F 43.9 °F 70% 30.05 in 10.0 mi NW 9.2 mph - N/A   Clear
8:55 PM 53.2 °F 43.2 °F 69% 30.06 in 10.0 mi NNW 5.8 mph - N/A   Clear
9:15 PM 52.7 °F 42.8 °F 69% 30.06 in 10.0 mi NNW 3.5 mph - N/A   Clear
9:35 PM 52.0 °F 42.4 °F 70% 30.07 in 10.0 mi North 4.6 mph - N/A   Clear
9:55 PM 51.3 °F 42.1 °F 71% 30.08 in 10.0 mi NNW 4.6 mph - N/A   Clear
10:15 PM 50.9 °F 41.9 °F 71% 30.09 in 10.0 mi NNW 3.5 mph - N/A   Clear
10:35 PM 50.4 °F 41.9 °F 73% 30.10 in 10.0 mi North 5.8 mph - N/A   Clear
10:55 PM 50.0 °F 41.9 °F 74% 30.11 in 10.0 mi North 5.8 mph - N/A   Clear
11:15 PM 49.1 °F 41.9 °F 76% 30.11 in 10.0 mi North 3.5 mph - N/A   Clear
11:35 PM 49.1 °F 41.4 °F 75% 30.11 in 10.0 mi NNW 5.8 mph - N/A   Clear
11:55 PM 48.6 °F 41.4 °F 76% 30.11 in 10.0 mi North 6.9 mph - N/A   Clear